DMSP 5D-2 F13 DEB, 40395

Orbit data source: Space-Track

DMSP 5D-2 F13 DEB, 40395 is space debris in SSO originally from a launch on Fri, 24 Mar 1995 UTC launched from the Air Force Western Test Range (AFWTR). Debris objects in space refer to the collection of defunct objects orbiting the Earth. Examples of debris include non-operational satellites, rocket bodies, and fragments generated from explosions, collisions, or faulty payload assembly.

Loading next visibility...
Identifier
40395, 1995-015G
Orbit
SSO
Country
Flag of USUS
Related business
Manufacturer
Unknown
Mission
Spacecraft
Bus & Motor
Unknown
Mass
Unknown
Launch date (UTC)
1995-03-24 (31 years ago)
Launch vehicle
Unknown
Launch site
Air Force Western Test Range (AFWTR)
Object type
Payload
Rocket body
Debris
Shape & HBR
Unknown shape, 0.2 m
Radar Cross Section
Small (<0.1 m²)

Expand to show TLE details & history
Last TLE update: 12 hours ago

TLE from 12 hours ago
0 DMSP 5D-2 F13 DEB
1 40395U 95015G   25289.04113557  .00002789  00000-0  11130-2 0  9997
2 40395  98.6191 309.9000 0022451 269.6450  90.2159 14.29175302552792
Epoch: 2025-10-16T00:59Z
TLE epoch observation values (Epoch: 2025-10-16T00:59:14.113Z)
Latitude
-0.00003°
Longitude
-89.71536°
Altitude
797.516 km
Speed
7.455 km/s
True Right ascension
20h 39m 36s
True Declination
0° 00' 00"
Sunlit
Object was in daylight at epoch
Visualization orbit readout
Latitude
Unknown
Longitude
Unknown
Altitude
Unknown
Speed
Unknown
Apparent Right ascension
Unknown
Apparent Declination
Unknown
Sunlit
N/A
Visualization observer readout
Local Sidereal Time
07:51:58
Azimuth
Unknown
Elevation
Unknown
Doppler factor
Unknown
Orbital elements
Apogee altitude
807.728 km
Perigee altitude
775.534 km
Semi-major axis
7,169.768 km
Eccentricity
0.00225
Inclination
98.6191°
RAAN
309.9°
Arg. of periapsis
269.645°
True anomaly
90.47316°
Mean anomaly
90.2159°
Eccentric anomaly
90.34453°
Mean motion
3.57508 °/min
Orbital period
100.7 mins
BSTAR
0.001113
Loading maneuver chart data...
Computing Atmospheric mass density...

Documentation

Showing up to 5 results
|